{"data":{"norad_id":68543,"intl_designator":"2026-070B","name":"STARLINK-36308","alt_names":[],"object_type":"PAYLOAD","status":"ACTIVE","operator":null,"country":"US","launch_date":"2026-04-02","launch_site_code":"AFETR","launch_vehicle":null,"mission":null,"orbit_class":"UNKNOWN","rcs_meters":null,"size_class":null,"mass_kg":null,"dimensions":null,"purposes":["comms"],"wikipedia_slug":null,"has_3d_model":false,"image_url":null,"decayed_at":null,"tle_current":{"epoch":"2026-09-19T23:29:01.853088Z","epoch_age_seconds":90019,"freshness":"FRESH","line1":"1 68543U 26070B   26262.97849367  .00018636  00000+0  56137-3 0  9990","line2":"2 68543  53.1575 176.4210 0000505 149.4625 210.6407 15.34396736 26359","mean_motion":15.34396736,"eccentricity":5.05e-5,"inclination_deg":53.1575,"raan_deg":176.421,"arg_perigee_deg":149.4625,"mean_anomaly_deg":210.6407,"bstar":0.00056137,"rev_number":2635,"period_min":93.847957716198,"perigee_km":462.36747859811,"apogee_km":463.05840444221,"semimajor_km":6840.8499415202,"source":"CELESTRAK","updated_at":"2026-09-20T09:00:43.909817Z"}}}